When you browse on this site, cookies collect data to enhance your experience and personalize the content and advertising you see.
Visit our Privacy Policy to learn more. By continuing to use the site, you agree to this use of cookies and data.
  • In Schweiz
  • Länderverzeichnis
  • Für 7 Tage
  • Wassertemperatur
  • Wetterkarte
  • Widgets
  • user-avatar
    Anmelden

    Stündliche Wetter Shondrovo

    Heute, 31 Mai, Sonntag

    Zeit Temperatur Niederschläge Wind Luftdruck Luftfeuchtigkeit
    00:00 +13°C° 0 mm 2 m/S 735 mmHg 95%
    01:00 +13°C° 0 mm 2 m/S 735 mmHg 95%
    02:00 +12°C° 0 mm 2 m/S 735 mmHg 95%
    03:00 +12°C° 0 mm 2 m/S 735 mmHg 95%
    04:00 +12°C° 0 mm 2 m/S 735 mmHg 94%
    05:00 +12°C° 0 mm 2 m/S 734 mmHg 94%
    06:00 +13°C° 0 mm 2 m/S 734 mmHg 94%
    07:00 +14°C° 0 mm 2 m/S 734 mmHg 90%
    08:00 +15°C° 0 mm 2 m/S 734 mmHg 86%
    09:00 +17°C° 0 mm 2 m/S 735 mmHg 82%
    10:00 +17°C° 0.9 mm 3 m/S 735 mmHg 80%
    11:00 +18°C° 0.9 mm 3 m/S 735 mmHg 78%
    12:00 +19°C° 0.9 mm 3 m/S 735 mmHg 76%
    13:00 +18°C° 2.1 mm 4 m/S 735 mmHg 80%
    14:00 +16°C° 2.1 mm 5 m/S 735 mmHg 83%
    15:00 +15°C° 2.1 mm 6 m/S 735 mmHg 86%
    16:00 +14°C° 1.5 mm 6 m/S 735 mmHg 87%
    17:00 +11°C° 1.5 mm 6 m/S 735 mmHg 89%
    18:00 +10°C° 1.5 mm 6 m/S 735 mmHg 90%
    19:00 +9°C° 1.2 mm 6 m/S 735 mmHg 90%
    20:00 +9°C° 1.2 mm 5 m/S 735 mmHg 90%
    21:00 +8°C° 1.2 mm 5 m/S 736 mmHg 90%
    22:00 +8°C° 0.1 mm 5 m/S 736 mmHg 90%
    23:00 +8°C° 0.1 mm 5 m/S 736 mmHg 91%

    Morgen, 1 Juni, Montag

    Zeit Temperatur Niederschläge Wind Luftdruck Luftfeuchtigkeit
    00:00 +8°C° 0.1 mm 4 m/S 736 mmHg 92%
    01:00 +8°C° 0.4 mm 5 m/S 736 mmHg 92%
    02:00 +8°C° 0.4 mm 5 m/S 736 mmHg 92%
    03:00 +7°C° 0.4 mm 6 m/S 736 mmHg 92%
    04:00 +7°C° 1 mm 5 m/S 736 mmHg 92%
    05:00 +7°C° 1 mm 5 m/S 736 mmHg 93%
    06:00 +7°C° 1 mm 5 m/S 735 mmHg 94%
    07:00 +7°C° 0.5 mm 5 m/S 736 mmHg 94%
    08:00 +7°C° 0.5 mm 5 m/S 736 mmHg 93%
    09:00 +7°C° 0.5 mm 5 m/S 736 mmHg 93%
    10:00 +8°C° 0.5 mm 5 m/S 737 mmHg 91%
    11:00 +8°C° 0.5 mm 4 m/S 737 mmHg 89%
    12:00 +10°C° 0.5 mm 4 m/S 737 mmHg 87%
    13:00 +10°C° 0.9 mm 4 m/S 737 mmHg 88%
    14:00 +10°C° 0.9 mm 4 m/S 737 mmHg 90%
    15:00 +10°C° 0.9 mm 3 m/S 737 mmHg 91%
    16:00 +10°C° 0.5 mm 4 m/S 736 mmHg 92%
    17:00 +10°C° 0.5 mm 4 m/S 736 mmHg 92%
    18:00 +9°C° 0.5 mm 5 m/S 736 mmHg 93%
    19:00 +9°C° 0.1 mm 5 m/S 736 mmHg 94%
    20:00 +9°C° 0.1 mm 6 m/S 736 mmHg 94%
    21:00 +9°C° 0.1 mm 6 m/S 736 mmHg 94%
    22:00 +9°C° 0.1 mm 6 m/S 736 mmHg 95%
    23:00 +9°C° 0.1 mm 6 m/S 736 mmHg 95%

    übermorgen, 2 Juni, Dienstag

    Zeit Temperatur Niederschläge Wind Luftdruck Luftfeuchtigkeit
    00:00 +9°C° 0.1 mm 6 m/S 735 mmHg 96%
    01:00 +9°C° 1.6 mm 6 m/S 735 mmHg 96%
    02:00 +9°C° 1.6 mm 6 m/S 735 mmHg 96%
    03:00 +9°C° 1.6 mm 6 m/S 735 mmHg 97%
    04:00 +9°C° 1.6 mm 6 m/S 735 mmHg 97%
    05:00 +9°C° 1.6 mm 6 m/S 734 mmHg 97%
    06:00 +9°C° 1.6 mm 6 m/S 734 mmHg 97%
    07:00 +9°C° 0.5 mm 6 m/S 735 mmHg 96%
    08:00 +10°C° 0.5 mm 6 m/S 735 mmHg 96%
    09:00 +10°C° 0.5 mm 6 m/S 735 mmHg 95%
    10:00 +10°C° 0.3 mm 6 m/S 735 mmHg 95%
    11:00 +11°C° 0.3 mm 6 m/S 736 mmHg 95%
    12:00 +12°C° 0.3 mm 5 m/S 736 mmHg 95%
    13:00 +12°C° 0.4 mm 5 m/S 736 mmHg 94%
    14:00 +13°C° 0.4 mm 6 m/S 736 mmHg 94%
    15:00 +13°C° 0.4 mm 6 m/S 735 mmHg 93%
    16:00 +13°C° 0.2 mm 6 m/S 735 mmHg 92%
    17:00 +14°C° 0.2 mm 6 m/S 735 mmHg 92%
    18:00 +14°C° 0.2 mm 6 m/S 735 mmHg 91%
    19:00 +13°C° 0.3 mm 6 m/S 735 mmHg 92%
    20:00 +13°C° 0.3 mm 6 m/S 735 mmHg 94%
    21:00 +11°C° 0.3 mm 6 m/S 735 mmHg 95%
    22:00 +11°C° 0 mm 6 m/S 735 mmHg 95%
    23:00 +11°C° 0 mm 6 m/S 735 mmHg 96%

    3 Juni, Mittwoch

    Zeit Temperatur Niederschläge Wind Luftdruck Luftfeuchtigkeit
    00:00 +11°C° 0 mm 6 m/S 735 mmHg 96%
    01:00 +11°C° 0.1 mm 6 m/S 735 mmHg 97%
    02:00 +12°C° 0.1 mm 5 m/S 735 mmHg 97%
    03:00 +12°C° 0.1 mm 5 m/S 735 mmHg 97%
    04:00 +12°C° 0 mm 4 m/S 735 mmHg 97%
    05:00 +12°C° 0 mm 4 m/S 735 mmHg 96%
    06:00 +12°C° 0 mm 3 m/S 735 mmHg 96%
    07:00 +13°C° 0 mm 3 m/S 735 mmHg 94%
    08:00 +13°C° 0 mm 3 m/S 735 mmHg 93%
    09:00 +15°C° 0 mm 2 m/S 736 mmHg 91%
    10:00 +16°C° 0 mm 2 m/S 736 mmHg 85%
    11:00 +17°C° 0 mm 2 m/S 736 mmHg 80%
    12:00 +17°C° 0 mm 2 m/S 736 mmHg 75%
    13:00 +18°C° 0 mm 2 m/S 736 mmHg 72%
    14:00 +18°C° 0 mm 2 m/S 736 mmHg 69%
    15:00 +19°C° 0 mm 2 m/S 736 mmHg 66%
    16:00 +18°C° 0 mm 2 m/S 736 mmHg 67%
    17:00 +18°C° 0 mm 2 m/S 736 mmHg 69%
    18:00 +19°C° 0 mm 1 m/S 736 mmHg 70%
    19:00 +18°C° 0 mm 1 m/S 736 mmHg 74%
    20:00 +15°C° 0 mm 1 m/S 736 mmHg 79%
    21:00 +14°C° 0 mm 1 m/S 736 mmHg 83%
    22:00 +13°C° 0 mm 1 m/S 736 mmHg 83%
    23:00 +13°C° 0 mm 1 m/S 736 mmHg 84%

    4 Juni, Donnerstag

    Zeit Temperatur Niederschläge Wind Luftdruck Luftfeuchtigkeit
    00:00 +12°C° 0 mm 1 m/S 736 mmHg 84%
    01:00 +12°C° 0 mm 1 m/S 736 mmHg 84%
    02:00 +13°C° 0 mm 1 m/S 736 mmHg 83%
    03:00 +13°C° 0 mm 1 m/S 736 mmHg 82%
    04:00 +13°C° 1.7 mm 1 m/S 736 mmHg 86%
    05:00 +13°C° 1.7 mm 1 m/S 736 mmHg 90%
    06:00 +13°C° 1.7 mm 1 m/S 736 mmHg 95%
    07:00 +13°C° 0.3 mm 1 m/S 736 mmHg 92%
    08:00 +14°C° 0.3 mm 1 m/S 736 mmHg 90%
    09:00 +15°C° 0.3 mm 1 m/S 736 mmHg 88%
    10:00 +15°C° 0.1 mm 1 m/S 736 mmHg 86%
    11:00 +16°C° 0.1 mm 1 m/S 736 mmHg 83%
    12:00 +16°C° 0.1 mm 1 m/S 736 mmHg 81%
    13:00 +16°C° 0.5 mm 1 m/S 736 mmHg 83%
    14:00 +16°C° 0.5 mm 1 m/S 735 mmHg 85%
    15:00 +15°C° 0.5 mm 2 m/S 735 mmHg 88%
    16:00 +16°C° 0.2 mm 1 m/S 735 mmHg 85%
    17:00 +16°C° 0.2 mm 1 m/S 735 mmHg 82%
    18:00 +18°C° 0.2 mm 1 m/S 735 mmHg 79%
    19:00 +15°C° 0.2 mm 1 m/S 735 mmHg 83%
    20:00 +14°C° 0.2 mm 1 m/S 734 mmHg 87%
    21:00 +13°C° 0.2 mm 1 m/S 734 mmHg 90%
    22:00 +13°C° 0 mm 1 m/S 734 mmHg 91%
    23:00 +12°C° 0 mm 2 m/S 734 mmHg 91%

    5 Juni, Freitag

    Zeit Temperatur Niederschläge Wind Luftdruck Luftfeuchtigkeit
    00:00 +12°C° 0 mm 2 m/S 734 mmHg 91%
    01:00 +10°C° 0 mm 2 m/S 734 mmHg 92%
    02:00 +10°C° 0 mm 2 m/S 734 mmHg 92%
    03:00 +10°C° 0 mm 2 m/S 733 mmHg 93%
    04:00 +10°C° 0 mm 2 m/S 733 mmHg 93%
    05:00 +10°C° 0 mm 2 m/S 733 mmHg 93%
    06:00 +12°C° 0 mm 2 m/S 733 mmHg 92%
    07:00 +12°C° 0 mm 3 m/S 733 mmHg 89%
    08:00 +14°C° 0 mm 3 m/S 734 mmHg 85%
    09:00 +16°C° 0 mm 3 m/S 734 mmHg 81%
    10:00 +17°C° 0.1 mm 3 m/S 734 mmHg 78%
    11:00 +18°C° 0.1 mm 4 m/S 733 mmHg 74%
    12:00 +19°C° 0.1 mm 4 m/S 733 mmHg 71%
    13:00 +19°C° 0.4 mm 4 m/S 733 mmHg 70%
    14:00 +19°C° 0.4 mm 4 m/S 733 mmHg 70%
    15:00 +19°C° 0.4 mm 4 m/S 733 mmHg 70%
    16:00 +18°C° 0.6 mm 4 m/S 733 mmHg 73%
    17:00 +18°C° 0.6 mm 3 m/S 733 mmHg 76%
    18:00 +17°C° 0.6 mm 3 m/S 732 mmHg 78%
    19:00 +16°C° 0.4 mm 3 m/S 732 mmHg 82%
    20:00 +14°C° 0.4 mm 3 m/S 732 mmHg 86%
    21:00 +13°C° 0.4 mm 2 m/S 732 mmHg 90%
    22:00 +13°C° 0 mm 2 m/S 733 mmHg 91%
    23:00 +12°C° 0 mm 2 m/S 733 mmHg 92%
    Mehr zeigen